Regional Weather Roundup
Issued by NWS

Home | Current Version | Previous Version | Text Only | Print | Product List | Glossary Off
Versions: 1 2 3 4 5 6 7 8 9 10 11 12 13 14 15 16 17 18 19 20 21 22 23 24 25 26 27 28 29 30 31 32 33 34 35 36 37 38 39 40 41 42 43 44 45 46 47 48 49 50

000
ASUS45 KBOU 011110
RWRCO

WEATHER ROUNDUP FOR COLORADO
NATIONAL WEATHER SERVICE DENVER/BOULDER CO
500 AM MDT SAT AUG 01 2015

NOTE: "FAIR" INDICATES FEW OR NO CLOUDS BELOW 12000 FEET WITH NO
SIGNIFICANT WEATHER AND/OR OBSTRUCTIONS TO VISIBILITY.

COZ001>005-013-030-031-011200-
...NORTHWEST COLORADO...

CITY           SKY/WX    TMP DP  RH WIND       PRES   REMARKS
CRAIG          CLEAR     42  34  73 W3        30.27S
HAYDEN         CLEAR     55  32  41 E12       30.29R
MEEKER         CLEAR     50  35  56 NE5       30.29F
MOUNT WERNER   NOT AVBL
STEAMBOAT SPGS CLEAR     49  38  67 SW3       30.32S
WALDEN         CLEAR     41  36  81 SE7       30.40S
$$

COZ006>008-011-011200-
...WEST CENTRAL VALLEYS...

CITY           SKY/WX    TMP DP  RH WIND       PRES   REMARKS
GRAND JUNCTION PTCLDY    70  47  43 E12       30.16F
MONTROSE       PTCLDY    59  46  62 S3        30.27S
EAGLE          CLEAR     55  41  58 E6        30.34S
RIFLE          CLEAR     60  40  47 SE7       30.24S
DELTA          PTCLDY    62  49  61 CALM      30.23S
NUCLA          PTCLDY    63  46  55 E10       30.31S
$$

COZ017>023-064>068-011200-
...SOUTHWEST COLORADO...

CITY           SKY/WX    TMP DP  RH WIND       PRES   REMARKS
DURANGO        CLOUDY    59  54  83 NE3       30.34F
CORTEZ         CLOUDY    63  59  87 NE6       30.27F
PAGOSA SPRINGS CLOUDY    58  53  81 CALM      30.43S
TELLURIDE      CLOUDY    55  49  80 SE5       30.51F
WOLF CREEK PAS NOT AVBL
$$

COZ009-010-012-014-032>034-037-058>063-011200-
...CENTRAL COLORADO...

CITY           SKY/WX    TMP DP  RH WIND       PRES   REMARKS
ASPEN          PTCLDY    56  43  61 SW6       30.39S
BUENA VISTA    PTCLDY    51  46  82 CALM      30.44F
COPPER MTN     PTCLDY    54  34  47 S7        30.71S
BERTHOUD PASS  FAIR      46  36  66 NW8       30.75S
COTTONWOOD PAS PTCLDY    57  41  54 SW7       30.55F
GUNNISON       MOCLDY    52  45  76 CALM      30.46S
KREMMLING      CLEAR     50  41  71 CALM      30.40R
LEADVILLE      PTCLDY    43  41  93 E3        30.55F
MONARCH PASS   PTCLDY    46  39  76 SW15      30.80F
SALIDA         MOCLDY    56  48  74 CALM      30.48F
SUNLIGHT       CLEAR     54  37  54 CALM      30.63S
WILKERSON PASS MOCLDY    46  43  87 W6        30.67S
$$

COZ069>075-011200-
...SAN LUIS VALLEY/SANGRE DE CRISTO MOUNTAINS...

CITY           SKY/WX    TMP DP  RH WIND       PRES   REMARKS
ALAMOSA        CLOUDY    56  53  90 SW3       30.40F
LA VETA PASS   CLOUDY    48  43  81 MISG      30.56F
SAGUACHE       CLOUDY    54  46  76 NW12      30.42F
$$

COZ035-036-038>040-011200-
...NORTHERN COLORADO FRONT RANGE...

CITY           SKY/WX    TMP DP  RH WIND       PRES   REMARKS
DENVER INTL AP PTCLDY    63  52  67 S10       30.19F
DMNS CITY PARK   N/A     65  51  62 SW6       30.18F
AURORA         PTCLDY    68  53  59 S15       30.21F
FRONT RANGE AP NOT AVBL
ERIE MUNI ARPT CLEAR     59  52  77 CALM      30.18S
BOULDER MUN AP CLEAR     64  52  63 CALM      30.19S
CENTENNIAL     PTCLDY    66  52  60 S12       30.22F
BROOMFIELD     CLEAR     66  48  52 N6        30.21F
FORT COLLINS   CLEAR     63  54  72 N7        30.18F
LONGMONT       CLEAR     60  52  74 NW3       30.19F
$$

COZ041-046-047-076>085-087-088-011200-
...PIKES PEAK/PALMER DIVIDE AND SOUTHERN FOOTHILLS...

CITY           SKY/WX    TMP DP  RH WIND       PRES   REMARKS
COLO. SPRINGS  MOCLDY    61  53  75 CALM      30.30F
A. F. ACADEMY  PTCLDY    53  49  87 N3        30.31F
ELLICOTT       PTCLDY   N/A N/A N/A SE6       30.28F
FALCON         PTCLDY    57  53  87 CALM      30.34F
FORT CARSON    PTCLDY    57  52  82 NW7       30.26F
LIMON          CLEAR     53  52  96 CALM      30.25F
MONUMENT HILL  MOCLDY    55  54  94 S7        30.33F
TRINIDAD       PTCLDY    62  54  74 W5        30.26F
$$

COZ042>045-048>051-090-091-011200-
...NORTHEAST COLORADO...

CITY           SKY/WX    TMP DP  RH WIND       PRES   REMARKS
GREELEY ARPT   CLEAR     59  54  82 E3        30.17S
AKRON          CLEAR     64  60  87 S10       30.18F
BURLINGTON     CLEAR     63  59  87 S9        30.18F
WRAY           CLEAR     61  59  92 SW8       30.15S
STERLING       CLEAR     59  55  88 SW5       30.14S
HOLYOKE        NOT AVBL
FORT MORGAN    CLEAR     60  54  79 CALM      30.18S
$$

COZ086-089-092>099-011200-
...SOUTHEAST COLORADO...

CITY           SKY/WX    TMP DP  RH WIND       PRES   REMARKS
PUEBLO         PTCLDY    66  56  70 NW3       30.20F
LA JUNTA       PTCLDY    68  64  87 S3        30.16F
LAMAR          CLEAR     65  62  90 E7        30.13F
SPRINGFIELD      N/A     63  63 100 S5        30.19F
$$


USA.gov is the U.S. government's official web portal to all federal, state and local government web resources and services.